User: anonymous   Login
Location: Unspecified
(0.0000°N, 0.0000°E)
Time: 02:59:24
(UTC+00:00)
Language:

STARLINK-4209 - Orbit

View from above orbital plane
View from above orbital plane
View from above satellite
View from above satellite

Ground track
Ground track

The orbit is defined by the following mean orbital elements,

1 52855U          26145.65943106 +.00000000 +00000-0 -10784-4 0 00005
2 52855  53.2133  38.5879 0001478  93.7910 266.3252 15.08835063    08
Epoch (UTC): 25 May 2026 15:49:34
Eccentricity: 0.0001478
inclination: 53.2133°
perigee height: 539 km
apogee height: 541 km
right ascension of ascending node: 38.5879°
argument of perigee: 93.7910°
revolutions per day: 15.08835063
mean anomaly at epoch: 266.3252°

The dashed part of the orbit path shows where the satellite is in the earth's shadow,  

DLR